Regional Weather Roundup
Issued by NWS

Home | Current Version | Previous Version | Text Only | Print | Product List | Glossary Off
Versions: 1 2 3 4 5 6 7 8 9 10 11 12 13 14 15 16 17 18 19 20 21 22 23 24 25 26 27 28 29 30 31 32 33 34 35 36 37 38 39 40 41 42 43 44 45 46 47 48 49 50

000
ASUS43 KFSD 280410
RWRSD

WEATHER ROUNDUP FOR SOUTH DAKOTA
NATIONAL WEATHER SERVICE SIOUX FALLS SD
1000 PM CST SAT DEC 27 2014

NOTE: "FAIR" INDICATES FEW OR NO CLOUDS BELOW 12,000 FEET WITH NO
SIGNIFICANT WEATHER AND/OR OBSTRUCTIONS TO VISIBILITY.


SDZ001>005-009-010-012>017-280500-
NORTHWEST AND NORTH CENTRAL SOUTH DAKOTA

CITY           SKY/WX    TMP DP  RH WIND       PRES   REMARKS
BUFFALO          N/A     22  16  78 W8        29.90F WCI  12
FAITH            N/A     18  11  74 W9        30.01S WCI   7
MOBRIDGE       CLOUDY    17  13  84 CALM      30.02R
$$

SDZ012>016-024>037-041>051-057-063-072>074-280500-
SOUTHWEST AND SOUTH CENTRAL SOUTH DAKOTA

CITY           SKY/WX    TMP DP  RH WIND       PRES   REMARKS
RAPID CTY ARPT CLEAR     11   6  81 W5        30.02F WCI   3
PIERRE         CLEAR     16  11  80 SW10      30.06S WCI   4
CUSTER         CLEAR     12   5  73 CALM      29.93F
ELLSWORTH AFB  CLEAR     17   7  66 W8        30.01F WCI   6
PHILIP         MOCLDY    13   9  84 W9        30.07S WCI   1
PINE RIDGE     CLEAR      8   2  76 W6        30.06S WCI  -2
SPEARFISH      FAIR      19  10  68 W9        29.98S WCI   9
WINNER         FAIR      19  10  68 SW10      30.08F WCI   7
$$

SDZ004>011-016>023-039-040-280500-
NORTHEAST SOUTH DAKOTA

CITY           SKY/WX    TMP DP  RH WIND       PRES   REMARKS
ABERDEEN       PTCLDY    18  14  84 S8        30.06R WCI   8
WATERTOWN      PTCLDY     6   4  91 S8        30.05S WCI  -7
SISSETON         N/A     22  17  81 W15       30.03F WCI   9
$$

SDZ017-020-022-023-036>040-048>070-280500-
SOUTHEAST SOUTH DAKOTA

CITY           SKY/WX    TMP DP  RH WIND       PRES   REMARKS
SIOUX FALLS    PTCLDY    10   8  92 S6        30.12F WCI   0
HURON          CLEAR     13   9  84 S7        30.08F WCI   3
CHAMBERLAIN    PTCLDY    14   9  81 W3        30.09S
MITCHELL       PTCLDY    12   9  87 SW6       30.11F WCI   3
YANKTON        FAIR      16  10  79 SW5       30.16F WCI   9
$$

ABBREVIATIONS USED IN REMARKS
   TC - TEMPERATURE IN CELSIUS
  WCI - WIND CHILL INDEX
   HX - HEAT INDEX
  VSB - VISIBILITY




USA.gov is the U.S. government's official web portal to all federal, state and local government web resources and services.